Location: ?????
(31.9267°N, 35.2410°E)
Time: 06:23:41
(UTC+00:00)

Daily predictions for brighter satellites

Satellite Brightness Start Highest point End
(mag) Time Altitude Azimuth Time Altitude Azimuth Time Altitude Azimuth
SL-14 R/B 3.3 15:20:03 10° S 15:24:01 64° E 15:28:00 10° NNE
SJ 16-02 4.4 15:25:13 10° WNW 15:26:17 11° WNW 15:27:20 10° NW
Cosmos 1908 3.6 15:23:02 10° NNW 15:26:53 70° W 15:30:41 10° S
Cosmos 2154 Rocket 4.1 15:20:45 10° S 15:26:56 61° E 15:33:06 10° NNE
Cosmos 2219 3.8 15:22:59 10° S 15:28:03 37° ESE 15:33:09 10° NE
Cosmos 1300 3.4 15:27:44 10° NNE 15:31:11 32° E 15:34:36 10° SE
Cosmos 1271 Rocket 3.2 15:28:51 10° SSW 15:32:32 61° W 15:36:14 10° N
ATLAS 5 CENTAUR R/B 4.4 15:36:38 10° NW 15:37:13 10° NW 15:37:48 10° NW
SKYMED 2 3.5 15:36:21 10° NNE 15:40:42 81° E 15:45:01 10° S
Cosmos 1174 3.6 15:37:26 10° NNW 15:40:45 86° WSW 15:44:46 10° SSE
Cosmos 2333 4.2 15:36:01 10° NNW 15:41:42 69° ENE 15:47:18 10° SSE
Cosmos 2322 3.7 15:37:53 10° NNW 15:43:34 83° ENE 15:49:13 10° SSE
Cosmos 2297 Rocket 2.8 15:41:45 10° S 15:46:51 36° ESE 15:51:59 10° NE
ADEOS Rocket 4.1 15:41:21 10° NE 15:47:04 29° E 15:53:12 10° SSE
FALCON 9 R/B 4.5 15:24:33 10° SW 15:47:58 37° SSE 15:54:57 11° E
CZ-4 R/B 1.7 15:45:03 10° SE 15:48:46 40° ENE 15:52:34 10° N
ISS -2.3 15:47:52 10° S 15:50:32 22° SE 15:52:04 16° E
CZ-4C R/B 3.5 15:46:36 10° NNW 15:53:26 36° NE 16:00:55 10° ESE
Cosmos 1626 3.0 15:50:02 10° SSW 15:53:37 51° W 15:57:13 10° N
Ariane Rocket 4.5 15:55:13 16° ENE 15:55:13 16° ENE 15:57:50 10° NNE
Cosmos 1812 Rocket 3.7 15:50:50 10° N 15:55:13 54° E 15:59:35 10° SSE
YAOGAN 1 3.0 15:51:27 10° SE 15:55:27 39° ENE 15:59:28 10° N
Cosmos 2227 Rocket 2.6 15:53:17 10° S 15:58:33 42° ESE 16:03:29 12° NE
Atlas Centaur 2 3.7 15:55:34 10° SSW 15:59:29 21° SSE 16:03:11 13° ESE
Cosmos 2360 Rocket 4.0 15:55:05 10° NW 16:00:10 35° WSW 16:05:12 10° SSW
YAOGAN 6 2.9 15:57:26 10° S 16:01:06 70° W 16:04:48 10° NNW
COSMOS 2428 2.7 15:57:25 10° NNW 16:03:09 68° ENE 16:08:49 10° SSE
USA 116 3.0 16:01:53 10° NNE 16:05:06 82° ESE 16:08:11 10° S
Cosmos 962 Rocket 4.4 16:00:27 10° S 16:06:33 81° E 16:12:41 10° N
Cosmos 494 Rocket 4.3 16:03:08 10° N 16:07:55 39° ENE 16:12:40 10° SE
DELTA 2 R/B (1) 3.8 16:02:26 10° WSW 16:07:58 62° NNW 16:11:39 21° NE
Cosmos 724 4.3 16:02:18 10° SSW 16:08:20 89° SE 16:14:17 10° NNE
Cosmos 1703 4.4 16:05:13 10° SE 16:08:03 23° E 16:08:03 23° E
Cosmos 2219 Rocket 2.1 16:03:43 10° NNW 16:09:24 80° ENE 16:15:02 10° SSE
USA 32 3.9 16:04:32 10° S 16:09:45 82° E 16:14:59 10° N
ASTRO E2 3.3 16:06:26 10° W 16:10:17 50° SSW 16:13:02 17° SE
Shenzhou-11 Module 2.1 16:08:49 10° SW 16:11:22 43° SE 16:11:43 40° ESE
ERBS 2.4 16:10:24 10° SW 16:13:43 70° NW 16:15:21 27° NNE
Cosmos 1932 4.4 16:09:00 10° SSW 16:15:13 69° ESE 16:20:30 16° NE
Okean-O 4.2 16:14:54 10° SSW 16:19:00 37° W 16:23:06 10° NNW
Nadezhda 3 Rocket 4.3 16:13:08 10° N 16:19:23 72° W 16:25:41 10° S
Cosmos-2242 3.5 16:17:06 10° NNE 16:21:06 37° E 16:25:04 10° SSE
Cosmos 44 3.6 16:18:35 10° S 16:22:59 39° ESE 16:23:57 35° E
DMSP B5D1-3 4.4 16:17:55 10° NNE 16:23:01 87° ESE 16:28:07 10° SSW
Cosmos 1953 Rocket 3.5 16:21:35 10° S 16:25:58 61° E 16:28:59 20° NNE
Cosmos 2341 Rocket 4.2 16:20:58 10° S 16:27:20 75° W 16:33:43 10° N
Cosmos 1758 Rocket 4.0 16:27:21 10° SSW 16:31:37 60° W 16:35:53 10° N
BREEZE-M DEB (TANK) 4.3 16:18:55 10° NW 16:35:27 75° NE 16:37:57 32° ESE
CSL-04 Debris 4.2 16:30:36 10° S 16:35:58 80° WSW 16:41:23 10° NNW
SL-8 Rocket 4.0 16:30:48 10° S 16:37:07 88° W 16:43:27 10° N
SL-8 R/B 3.7 16:32:45 10° SW 16:37:34 81° NW 16:39:02 45° NE
Meteor 1-11 4.5 16:33:08 10° SSE 16:38:25 42° E 16:38:54 41° E
CZ-2D R/B 3.3 16:37:17 10° S 16:41:03 74° W 16:44:52 10° NNW
Cosmos 1461 3.5 16:39:26 10° NW 16:43:47 62° WSW 16:48:17 10° SSE
H-2A ROCKET BODY 1.7 16:40:04 10° W 16:46:59 50° SSW 16:47:20 48° S
NOSS 0 Rocket 3.8 16:42:30 10° NNW 16:48:44 90° NW 16:54:54 10° SSE
Cosmos 1328 3.8 16:47:47 10° S 16:51:48 81° W 16:51:52 80° WNW
Cosmos 2333 Rocket 3.6 16:46:43 10° NW 16:51:56 38° WSW 16:57:07 10° S
Gblst 52 Del rocket 4.4 16:49:38 10° SW 16:55:47 86° SE 16:57:52 48° NE
Cosmos 2237 Rocket 2.0 16:51:12 10° NNW 16:56:50 71° ENE 16:58:09 52° SE
Cosmos 1269 Rocket 4.0 16:54:10 10° NNW 16:59:28 82° WSW 17:04:43 10° SSE
SL-08 R/B 4.3 16:53:56 10° S 17:00:07 76° E 17:03:34 29° NNE
Cosmos 1939 Rocket 4.1 16:56:55 10° SSW 17:00:32 39° W 17:04:12 10° NNW
Meteor 2-10 Rocket 3.3 16:56:33 10° N 17:01:54 80° E 17:07:00 10° S
Cosmos 2218 Rocket 4.4 16:57:38 10° SSW 17:03:50 63° W 17:10:09 10° N
Atlas 2A Centaur Rocket 3.9 17:02:25 10° SW 17:06:51 21° S 17:06:51 21° S
Cosmos 2082 4.0 17:11:28 10° SSW 17:17:00 63° WNW 17:18:05 52° NNW
ISS -0.5 17:24:22 10° W 17:25:02 14° W 17:25:02 14° W
Cosmos 2297 Rocket 4.1 17:26:23 10° WSW 17:30:54 25° WNW 17:34:15 15° NNW
ADEOS Rocket 4.3 17:26:20 10° N 17:32:28 43° WNW 17:39:12 10° SW
Ariane Rocket 4.4 17:28:32 10° S 17:35:23 32° NW 17:38:18 10° NNW
CZ-4C R/B 3.8 17:34:48 10° NW 17:42:16 50° WSW 17:50:18 10° S
Cosmos 2227 Rocket 4.3 17:38:28 10° WSW 17:42:44 22° WNW 17:45:23 16° NNW
Atlas Centaur 2 3.4 17:42:09 10° WSW 17:45:47 39° SW 17:45:47 39° SW
